SCP
0 0 0 0 0 -0 -0 -0 -0 -0 -0 -0 -0 -0 -0 -0 0 0 0 0 0 0 0 0 0 0 0 0 0 0 0 0 0 0 0 0 0 0 0 0 0 0 0 0 0 0 0 0 0
0 0 0 0 0 -0 -0 -0 -0 -0 -0 -0 -0 -0 -0 0 0 0 0 0 0 0 0 0 0 0 0 0 0 0 0 0 0 0 0 0 0 0 0 0 0 0 0 0 0 0 0 0 0
0 0 0 0 0 0 0 0 0 0 0 -0 -0 -0 0 0 0 0 0 0 0 0 0 0 0 0 0 0 0 0 0 0 0 0 0 0 0 0 0 0 0 0 0 0 0 0 0 0 0
0 0 0 0 0 0 0 0 0 0 0 0 -0 0 0 0 0 0 0 0 0 0 0 0 0 0 0 0 0 0 0 0 0 0 0 0 0 0 0 0 0 0 0 0 0 0 0 0 0
0 0 0 0 0 0 0 0 0 0 0 0 -0 0 0 0 0 0 0 0 0 0 0 0 0 0 0 0 0 0 0 0 0 0 0 0 0 0 0 0 0 0 0 0 0 0 0 0 0
-0 -0 0 0 0 0 0 0 0 0 0 0 0 0 0 0 0 0 0 0 0 0 0 0 0 0 0 0 0 0 0 0 0 0 0 0 0 0 0 0 0 0 0 0 0 0 0 0 0
0 -0 0 0 0 0 0 0 0 0 0 0 0 0 0 0 0 0 0 0 0 0 0 0 0 0 0 0 0 0 0 0 0 0 0 0 0 0 0 0 0 0 0 0 0 0 0 0 0
0 0 0 0 0 0 0 0 0 0 0 0 0 0 0 0 0 0 0 0 0 0 0 0 0 0 0 0 0 0 1 1 1 1 1 1 1 0 1 1 1 1 1 0 0 1 1 1 1
0 0 0 0 0 0 0 0 0 0 0 0 0 0 0 1 1 1 1 1 0 0 0 0 0 1 1 1 1 1 1 1 1 1 1 1 1 1 1 1 1 1 1 1 1 1 1 1 1
0 0 0 0 0 0 0 0 0 0 0 0 0 0 0 1 1 1 1 1 1 1 1 1 1 1 1 1 1 1 1 1 1 1 1 1 1 1 1 1 1 1 1 1 1 1 1 1 1
0 0 0 0 0 0 0 0 0 0 0 0 0 0 0 0 1 1 1 1 1 1 1 1 1 1 1 1 1 1 1 2 2 2 2 2 2 2 1 1 1 1 1 1 1 1 1 1 1
0 0 0 0 0 0 0 0 0 0 0 0 0 0 0 1 1 1 1 1 1 1 1 1 1 1 1 1 1 1 1 2 2 2 2 2 2 2 2 2 2 2 2 1 1 1 1 1 1
0 0 0 0 0 0 0 0 0 1 1 1 1 1 1 1 1 1 1 1 1 1 1 1 1 1 1 1 1 1 1 1 1 2 2 2 2 2 2 2 2 2 2 2 2 1 1 1 1
0 0 0 0 0 0 0 0 0 1 1 1 1 1 1 1 2 2 1 1 1 1 1 1 1 1 1 1 1 1 1 1 1 1 1 2 2 2 2 2 2 2 2 2 2 1 1 1 1
0 0 0 0 0 0 0 0 0 1 1 1 1 1 1 1 1 1 1 1 1 1 1 1 1 1 1 1 1 1 1 1 1 1 1 1 2 2 2 2 2 2 2 2 2 1 1 1 1
0 0 0 0 0 0 0 0 0 0 1 1 1 1 1 1 1 1 1 1 1 1 1 1 1 1 1 1 1 1 1 1 1 1 1 1 1 2 2 2 2 2 2 2 2 1 1 1 1
0 0 0 0 0 0 0 0 0 0 0 0 0 0 0 0 0 0 1 1 1 1 1 1 1 1 1 1 1 0 1 1 1 1 1 1 1 1 2 2 2 2 2 2 2 1 1 1 1
0 0 0 0 0 0 0 0 0 0 0 0 0 0 0 0 0 0 0 0 0 1 1 1 1 0 0 0 0 0 0 0 0 0 0 0 1 1 1 1 1 1 1 1 1 1 1 1 1
0 0 0 0 0 0 0 0 0 0 0 0 0 0 0 0 0 0 0 0 0 0 0 0 0 0 0 0 0 0 0 0 0 0 0 0 0 0 1 1 1 1 1 1 1 1 1 1 1
0 0 0 0 0 0 0 0 0 0 0 0 0 0 0 0 0 0 0 0 0 0 0 0 0 0 0 0 0 0 0 0 0 0 0 0 0 0 0 0 1 1 1 1 1 1 1 1 1
0 0 0 0 0 0 0 0 0 0 0 0 0 0 0 0 0 0 0 0 0 0 0 0 0 0 0 0 0 0 0 0 0 0 0 0 0 0 0 0 0 1 1 1 1 1 1 1 0
0 0 0 0 0 0 0 0 0 0 0 0 0 0 0 0 0 0 0 0 0 0 0 0 0 0 0 0 0 0 0 0 0 0 0 0 0 0 0 0 0 0 1 1 1 1 1 0 0
0 0 0 0 0 0 0 0 0 0 0 0 0 0 0 0 0 0 0 0 0 0 0 0 0 0 0 0 0 0 0 0 0 0 0 0 -0 0 0 0 0 0 0 1 1 1 1 0 0
0 0 0 0 0 0 0 0 0 0 0 0 0 0 0 0 0 0 0 0 0 0 0 0 0 0 0 0 0 0 0 0 0 0 0 0 -0 0 0 0 0 0 0 0 0 1 1 1 1
0 0 0 0 0 0 0 0 0 0 0 0 0 0 0 0 0 0 0 0 0 0 0 0 0 0 0 0 0 0 0 0 0 0 0 0 0 0 0 0 0 0 0 0 0 0 1 1 1
0 0 0 0 0 0 0 0 0 0 0 0 0 0 0 0 0 0 0 0 0 0 0 0 0 0 0 0 0 0 0 0 0 0 0 0 0 0 0 0 0 0 0 0 0 0 0 1 1
-0 -0 -0 -0 0 0 0 0 0 0 0 0 0 0 0 0 0 0 0 0 0 0 0 0 0 0 0 0 0 0 0 0 0 0 0 0 0 0 0 0 0 0 0 0 0 0 0 0 0
0 0 -0 -0 0 0 0 0 0 0 0 0 0 0 0 0 0 0 0 0 0 0 0 0 0 0 0 0 0 0 0 0 0 0 0 0 0 0 0 0 0 0 0 0 0 0 0 0 0
0 0 0 0 0 0 0 0 0 0 0 0 0 0 0 0 0 0 0 0 0 0 0 0 0 0 0 0 0 0 0 0 0 0 0 0 0 0 0 0 0 0 0 0 0 0 0 0 0
0 0 0 0 0 0 0 0 0 0 0 0 0 0 0 0 0 0 0 0 0 0 0 0 0 0 0 0 0 0 0 0 0 0 0 0 0 0 0 0 0 0 0 0 0 0 0 0 0
Wind_Speed
17 15 9 6 7 7 4 6 5 5 3 4 2 3 5 6 7 6 6 11 15 18 20 20 17 16 15 14 13 12 12 13 13 13 13 12 12 12 11 11 10 9 8 8 8 8 8 8 8
14 12 7 7 8 2 6 6 6 6 5 2 0 2 4 4 6 5 7 12 17 18 19 18 18 16 15 14 13 12 12 12 12 12 12 12 11 11 10 10 9 9 8 8 8 7 8 8 8
12 9 7 7 5 6 7 7 6 3 1 2 1 2 4 6 5 4 9 15 17 17 16 17 19 16 15 14 13 12 12 11 11 11 11 11 10 10 10 10 9 8 8 8 8 8 8 8 8
7 7 7 8 4 5 5 6 5 3 0 0 2 3 5 7 4 7 13 16 17 17 16 18 17 16 15 14 13 12 11 11 10 10 10 10 10 9 10 9 9 8 8 8 8 8 8 8 8
6 7 8 7 2 4 4 6 5 5 3 2 2 3 7 7 8 12 14 16 17 16 15 18 16 16 15 14 13 12 11 11 10 10 9 9 9 9 9 9 8 8 8 8 8 8 8 8 9
6 6 9 5 3 3 4 6 4 4 3 2 1 3 8 7 9 12 14 14 15 15 14 17 16 15 14 14 13 12 12 11 10 10 10 9 9 9 9 9 9 9 9 8 8 8 9 9 9
7 7 9 7 4 2 6 7 6 5 4 4 3 3 9 10 10 12 13 12 13 13 13 14 15 14 14 13 12 12 12 11 11 11 10 10 10 10 10 9 9 9 9 9 9 10 10 10 10
6 7 9 7 5 3 7 8 6 6 5 5 4 4 7 11 12 13 13 12 12 12 12 11 12 12 12 13 13 12 12 12 11 11 11 11 11 11 12 11 11 11 11 11 11 11 12 12 12
6 8 10 6 5 5 8 9 7 4 4 6 8 9 8 14 14 14 13 12 11 11 10 10 11 11 10 10 12 13 13 12 12 13 13 12 12 13 13 15 13 13 13 13 13 13 13 13 14
8 10 8 4 6 8 8 8 9 4 4 7 8 8 9 13 14 15 14 14 14 13 12 10 10 10 9 8 8 8 9 10 11 9 11 11 10 9 10 9 12 14 15 15 15 15 14 14 11
8 9 6 5 6 8 7 6 8 8 7 10 8 2 7 10 11 12 12 12 12 12 11 10 9 8 8 6 5 5 5 6 9 11 11 10 9 8 9 8 10 13 15 13 13 14 12 12 10
9 8 7 8 7 7 6 4 6 12 11 9 6 3 5 7 8 8 9 9 10 10 10 9 8 7 6 5 5 5 5 5 7 9 11 10 8 9 9 8 9 8 8 9 9 8 11 12 12
10 8 5 5 5 3 1 3 6 12 11 10 9 8 7 5 5 5 6 6 7 7 7 6 5 5 5 5 5 6 6 7 9 9 10 11 10 10 10 8 8 9 9 9 9 10 11 11 12
4 5 4 3 1 2 5 7 6 9 10 11 12 12 12 11 10 8 6 4 4 4 4 3 3 3 4 5 5 6 7 7 9 9 11 12 10 10 10 10 9 10 10 9 9 11 10 10 9
5 6 5 4 1 4 6 9 9 8 8 11 12 12 14 13 12 11 9 7 5 4 3 2 1 2 4 5 7 6 7 9 9 9 11 12 12 12 11 10 10 10 10 10 9 11 9 10 11
8 10 7 7 3 2 8 6 9 6 8 9 10 10 11 11 11 10 9 8 7 6 6 5 4 4 4 5 6 6 7 8 8 9 10 12 12 13 11 10 10 10 9 8 8 8 8 9 9
8 5 4 7 7 1 1 8 8 6 7 8 8 8 9 9 10 9 8 8 7 6 5 5 5 6 6 6 6 6 6 6 7 7 8 9 10 11 10 8 8 8 7 8 8 7 8 8 8
1 1 3 6 7 6 8 9 7 7 7 7 7 7 7 8 8 7 6 6 5 5 5 4 4 5 6 5 4 4 5 5 5 6 7 8 8 9 8 6 7 7 7 7 7 7 7 7 7
2 1 3 7 5 5 8 9 7 6 6 6 6 6 7 7 6 5 5 5 5 5 5 5 5 6 5 5 6 6 7 6 5 5 7 8 7 6 5 5 5 6 6 7 7 6 8 8 6
4 3 5 7 5 3 8 8 7 6 6 5 6 6 6 6 6 5 4 4 5 5 5 5 5 6 6 6 5 5 6 6 5 5 6 8 8 6 4 4 5 5 5 6 6 6 7 7 6
4 3 1 5 7 6 8 9 8 7 6 6 5 5 5 5 5 4 4 3 4 4 5 5 6 6 7 7 6 6 5 5 5 6 5 7 8 8 6 6 5 6 6 5 6 7 9 8 7
3 1 2 7 9 6 9 4 9 7 6 5 5 5 4 4 3 2 1 2 3 4 5 5 6 7 7 7 7 9 7 7 7 6 6 7 7 7 7 6 6 6 5 6 7 8 8 9 8
3 1 4 7 7 4 6 6 9 7 6 5 5 4 3 2 1 1 3 4 5 6 7 7 7 8 8 8 8 8 9 8 7 7 7 7 6 6 6 6 6 6 6 6 7 7 8 8 9
3 4 6 8 8 7 2 6 7 5 3 4 4 4 3 2 2 3 5 6 7 8 9 9 9 10 10 10 10 10 10 10 10 10 9 7 6 5 5 5 4 5 5 5 6 7 9 9 9
6 7 6 6 6 1 3 4 7 5 2 0 1 3 4 4 5 6 8 9 10 10 11 11 11 11 11 12 11 12 12 12 12 12 10 9 8 6 5 5 4 5 4 5 5 7 9 10 10
3 7 6 7 6 2 4 0 7 4 1 1 3 4 5 6 7 8 9 10 11 12 12 12 12 13 13 13 12 12 13 12 11 11 12 12 10 9 7 7 6 6 6 6 5 6 8 8 9
3 3 6 8 6 7 1 6 7 4 1 3 4 6 7 7 8 10 11 12 12 12 13 13 13 14 14 14 14 13 13 13 14 14 13 12 10 10 10 9 9 8 7 7 6 6 7 7 8
5 3 4 6 7 7 3 2 4 3 3 4 5 6 7 9 10 12 12 12 12 12 13 14 14 14 15 15 14 13 14 14 14 14 15 14 14 13 13 13 12 11 10 9 8 7 7 7 7
2 1 4 5 5 8 8 4 7 4 4 6 7 7 9 11 12 13 12 12 13 14 15 15 15 16 15 15 15 15 15 15 15 14 15 14 14 14 14 14 13 13 12 11 10 10 9 9 8
5 5 5 6 5 5 8 3 8 3 4 6 8 9 10 12 13 13 13 13 14 15 16 16 16 16 16 16 16 16 15 16 16 16 15 15 15 14 15 14 14 14 14 13 12 12 11 11 10
Wind_Direction
160 167 181 200 231 227 31 38 17 21 27 24 359 302 327 335 339 21 77 142 147 147 143 152 156 159 160 158 155 152 153 156 158 158 157 157 157 159 161 162 164 167 166 156 146 140 137 135 134
162 167 195 225 257 348 55 30 17 21 21 3 260 282 311 24 34 69 118 141 149 147 147 155 154 160 161 159 157 155 155 156 158 160 160 160 160 162 165 167 169 172 170 160 154 151 147 144 143
162 194 242 246 275 2 17 20 13 21 32 324 343 345 358 29 63 94 121 145 149 146 148 147 156 161 162 161 160 159 158 159 161 163 165 166 167 170 172 173 174 175 171 166 166 164 158 155 155
179 215 236 253 299 29 359 0 353 327 28 348 320 74 75 43 49 104 132 148 148 149 153 146 160 161 162 162 163 163 162 163 165 168 171 174 178 181 182 179 178 178 175 175 176 174 169 167 167
230 249 248 248 348 33 10 359 335 322 346 14 338 57 86 71 86 119 140 150 152 154 153 148 162 163 164 165 166 168 168 169 172 175 178 182 187 193 192 188 188 187 186 187 187 186 181 180 181
231 246 265 293 17 21 26 10 333 343 1 17 351 72 88 103 118 132 142 154 155 155 155 146 161 165 166 169 171 173 175 177 180 184 188 192 196 202 206 205 205 202 199 199 199 199 194 193 195
265 271 283 302 322 3 20 355 348 348 2 25 4 56 108 120 122 134 140 151 154 156 154 153 165 169 172 175 177 179 182 185 190 194 197 201 207 212 216 218 218 217 214 210 210 211 208 205 206
272 273 266 269 289 346 14 349 357 349 32 34 359 25 100 128 136 136 139 148 156 160 162 161 170 171 178 180 183 189 192 195 199 204 208 211 214 219 223 226 218 224 225 223 222 220 219 216 215
246 253 264 282 304 335 360 343 357 11 61 59 46 36 78 130 141 143 143 148 158 165 167 171 172 174 185 190 180 193 200 204 208 209 211 217 223 219 212 222 217 222 229 230 229 228 226 225 221
232 255 272 324 317 320 336 338 346 330 54 54 53 71 114 142 153 155 155 158 164 170 176 177 181 174 190 197 187 205 210 205 217 225 217 219 228 235 234 205 212 226 233 235 233 234 233 232 229
232 261 291 290 303 312 312 346 8 345 29 13 357 64 138 151 160 163 162 165 166 173 180 179 184 185 198 205 211 216 225 223 225 230 231 235 238 234 233 225 209 220 227 232 227 227 232 231 232
241 252 271 288 306 301 307 333 31 33 14 3 9 73 134 153 158 162 159 164 164 176 182 185 185 193 208 225 231 239 242 240 242 235 234 235 234 237 238 233 231 222 221 225 234 231 233 236 236
237 255 264 293 293 300 315 53 63 39 27 40 59 72 82 96 110 119 131 144 157 171 179 180 194 207 217 232 253 256 259 260 257 255 248 246 243 240 237 237 239 238 233 226 228 237 239 240 239
254 261 269 325 325 144 120 84 63 37 41 55 59 60 59 58 59 68 77 104 133 154 166 177 208 233 255 261 268 274 273 269 271 267 261 254 251 249 246 240 237 240 239 240 239 240 241 243 242
252 238 178 78 123 161 162 85 49 42 60 67 66 63 60 54 52 52 52 54 60 66 64 50 319 313 305 298 292 284 281 282 279 276 270 263 255 250 247 246 241 240 240 239 242 247 246 244 242
220 217 165 78 38 157 233 93 52 47 72 72 71 69 67 59 56 53 53 53 52 52 51 32 6 346 324 310 303 297 296 295 289 283 275 268 264 258 249 245 243 242 240 238 238 241 242 242 244
201 194 127 103 45 101 130 87 63 58 78 77 74 74 73 70 61 56 55 54 49 50 46 32 13 353 336 318 304 301 303 299 296 290 285 278 269 263 253 248 248 245 242 238 241 235 238 241 240
136 162 118 90 65 84 95 97 82 68 74 78 79 78 76 71 62 58 60 61 58 53 44 26 13 358 334 325 317 315 315 316 317 316 310 299 282 273 266 256 255 254 241 235 233 240 238 244 242
311 276 101 98 107 88 100 101 91 87 81 82 79 78 80 78 78 70 67 63 61 52 39 23 11 2 346 347 340 340 338 334 335 340 341 329 314 299 282 277 266 260 252 242 234 229 232 232 230
222 212 130 120 135 140 124 112 107 95 84 75 84 90 95 97 95 84 74 67 53 46 34 21 11 2 350 354 335 330 329 329 342 349 347 347 340 322 298 287 284 267 260 251 243 233 245 240 221
229 268 157 143 154 167 162 146 139 125 121 117 110 109 107 102 98 92 76 58 46 34 17 6 356 346 350 340 333 336 328 327 342 346 349 353 350 345 336 312 294 279 268 258 249 236 236 242 229
254 333 200 169 194 182 224 200 149 147 148 142 136 132 123 122 116 99 65 26 10 360 349 344 338 337 334 326 336 338 334 334 338 333 341 339 343 347 348 338 322 307 286 269 254 240 237 238 236
11 56 199 203 236 223 205 258 136 165 175 158 150 150 152 149 140 345 341 338 334 332 331 329 329 326 322 317 310 306 314 322 323 326 326 324 330 338 346 348 339 327 308 289 271 258 241 234 238
138 169 187 215 235 236 166 278 137 149 157 152 164 184 206 233 271 301 314 316 318 321 322 322 324 320 315 307 302 296 299 303 308 310 311 310 313 316 325 325 326 317 309 300 281 263 245 242 242
225 249 245 232 232 204 126 263 85 89 103 167 235 232 244 262 282 297 307 314 318 320 323 323 322 319 316 309 301 295 293 292 288 291 298 299 298 295 297 301 301 299 295 293 289 274 260 245 240
295 292 303 306 311 326 177 164 94 85 98 266 275 276 273 280 292 302 308 313 314 319 322 322 322 318 316 312 308 302 294 288 290 295 297 295 291 289 287 274 268 271 278 279 274 275 270 257 245
284 328 336 293 286 286 165 120 128 144 192 260 277 282 286 294 301 305 311 314 316 321 323 322 319 315 313 311 307 297 294 294 295 294 284 281 282 281 275 268 262 255 254 260 264 262 268 271 258
13 350 294 305 317 307 297 202 126 122 358 330 308 306 308 309 310 313 316 317 319 320 319 317 315 314 312 309 309 307 306 299 294 290 289 287 284 279 275 269 263 257 250 244 246 253 253 258 263
10 20 336 316 331 316 317 37 79 37 345 323 323 320 319 318 318 319 318 319 318 317 317 318 317 314 312 311 311 307 303 301 297 291 286 283 279 276 271 266 263 258 252 245 239 244 245 246 249
41 15 342 322 333 308 304 48 105 26 320 313 313 318 321 320 317 317 319 320 318 318 319 318 316 313 311 311 308 305 304 301 297 294 293 289 283 276 271 265 259 256 251 245 239 239 241 240 242